North Bend, OR

4:57 AM PDT on May 24, 2017 (GMT -0700)
North Bend Municipal

Weather History for KOTH - February, 2012

Change the Weather History Date:

Wednesday, February 22, 2012

  Actual Average Record
Temperature  
Mean Temperature 48 °F 47 °F  
Max Temperature 52 °F 53 °F 68 °F (2005)
Min Temperature 43 °F 40 °F 22 °F (1913)
Degree Days  
Heating Degree Days 17 18  
Month to date heating degree days 390 413  
Since 1 July heating degree days 2986 3068  
Cooling Degree Days 0 0  
Month to date cooling degree days 0 0  
Year to date cooling degree days 0 0  
Moisture  
Dew Point 42 °F    
Average Humidity 78    
Maximum Humidity 80    
Minimum Humidity 65    
Precipitation  
Precipitation 0.21 in 0.27 in 2.12 in (1986)
Month to date precipitation 2.28 5.94  
Year to date precipitation 7.04 16.13  
Sea Level Pressure  
Sea Level Pressure 30.46 in    
Wind  
Wind Speed 9 mph (WSW)    
Max Wind Speed 17 mph    
Max Gust Speed 22 mph    
Visibility 5 miles    
Events      
T = Trace of Precipitation, MM = Missing Value Source: NWS Daily Summary

Daily Weather History Graph

Daily Weather History Graph

Search for Another Location

Airport or City:

Trip Planner

Search our weather history database for the weather conditions in past years. The results will help you decide how hot, cold, wet, or windy it might be!

Date:

Astronomy

Feb. 22, 2012 Rise Set
Actual Time 7:05 AM PST 5:56 PM PST
Civil Twilight 6:36 AM PST 6:25 PM PST
Nautical Twilight 6:03 AM PST 6:58 PM PST
Astronomical Twilight 5:30 AM PST 7:31 PM PST
Moon 7:03 AM PST (2/22) 7:12 PM PST (2/22)
Length of Visible Light 11h 49m
Length of Day
10h 51m
New Moon, 1% of the Moon is Illuminated
Feb 22
New Moon
Feb 29
First Quarter
Mar 8
Full
Mar 14
Last Quarter
Mar 22
New

Hourly Weather History & Observations

Time (PST) Temp. Windchill Dew Point Humidity Pressure Visibility Wind Dir Wind Speed Gust Speed Precip Events Conditions
12:15 AM 48.2 °F - 42.8 °F 82% 30.47 in 1.8 mi WSW 6.9 mph - N/A   Overcast
12:35 AM 48.2 °F - 42.8 °F 82% 30.46 in 1.5 mi WSW 9.2 mph - N/A   Overcast
12:55 AM 48.2 °F - 42.8 °F 82% 30.46 in 1.5 mi SW 6.9 mph - N/A   Overcast
1:15 AM 48.2 °F - 42.8 °F 82% 30.47 in 1.5 mi SW 9.2 mph - N/A   Overcast
1:35 AM 48.2 °F - 42.8 °F 82% 30.46 in 1.5 mi SW 10.4 mph 17.3 mph N/A   Overcast
1:55 AM 48.2 °F - 42.8 °F 82% 30.46 in 1.5 mi SW 10.4 mph - N/A   Overcast
2:15 AM 48.2 °F - 42.8 °F 82% 30.46 in 4.0 mi SW 8.1 mph - N/A   Overcast
2:35 AM 48.2 °F - 42.8 °F 82% 30.46 in 3.0 mi SW 8.1 mph - N/A   Overcast
2:55 AM 48.2 °F - 42.8 °F 82% 30.47 in 2.5 mi SW 8.1 mph - N/A   Overcast
3:15 AM 48.2 °F - 42.8 °F 82% 30.46 in 1.5 mi SW 8.1 mph - N/A   Overcast
3:35 AM 48.2 °F - 42.8 °F 82% 30.45 in 2.0 mi SSW 8.1 mph - N/A   Overcast
3:55 AM 48.2 °F - 42.8 °F 82% 30.44 in 3.0 mi South 9.2 mph - N/A   Overcast
4:15 AM 48.2 °F - 42.8 °F 82% 30.44 in 8.0 mi SSW 8.1 mph - N/A   Overcast
4:35 AM 48.2 °F - 42.8 °F 82% 30.43 in 2.5 mi SSW 6.9 mph - N/A   Overcast
4:55 AM 48.2 °F - 42.8 °F 82% 30.43 in 4.0 mi SSW 10.4 mph - N/A   Overcast
5:15 AM 48.2 °F - 42.8 °F 82% 30.43 in 5.0 mi SSW 9.2 mph - N/A   Overcast
5:35 AM 48.2 °F - 42.8 °F 82% 30.45 in 4.0 mi SW 5.8 mph - N/A   Overcast
5:55 AM 48.2 °F - 42.8 °F 82% 30.44 in 7.0 mi SW 8.1 mph - N/A   Overcast
6:15 AM 48.2 °F - 42.8 °F 82% 30.43 in 3.0 mi SSW 11.5 mph - N/A   Overcast
6:35 AM 48.2 °F - 42.8 °F 82% 30.42 in 4.0 mi South 8.1 mph - N/A   Overcast
6:55 AM 48.2 °F - 42.8 °F 82% 30.43 in 9.0 mi SW 6.9 mph - N/A   Overcast
7:15 AM 48.2 °F - 42.8 °F 82% 30.44 in 2.5 mi SW 12.7 mph 17.3 mph N/A   Overcast
7:35 AM 48.2 °F - 42.8 °F 82% 30.44 in 1.0 mi SW 11.5 mph - N/A   Overcast
7:55 AM 48.2 °F - 42.8 °F 82% 30.45 in 1.5 mi WSW 10.4 mph - 0.01 in   Overcast
8:15 AM 48.2 °F - 42.8 °F 82% 30.44 in 1.5 mi SW 10.4 mph - 0.02 in   Overcast
8:35 AM 48.2 °F - 42.8 °F 82% 30.44 in 1.8 mi SW 6.9 mph 16.1 mph 0.03 in   Overcast
8:55 AM 48.2 °F - 42.8 °F 82% 30.44 in 1.8 mi SW 8.1 mph - 0.04 in   Overcast
9:15 AM 48.2 °F - 42.8 °F 82% 30.45 in 1.5 mi SW 8.1 mph - 0.02 in   Overcast
9:35 AM 48.2 °F - 42.8 °F 82% 30.45 in 2.0 mi SW 12.7 mph 18.4 mph 0.04 in   Overcast
9:55 AM 48.2 °F - 42.8 °F 82% 30.45 in 2.0 mi SW 10.4 mph 18.4 mph 0.07 in   Overcast
10:15 AM 48.2 °F - 42.8 °F 82% 30.46 in 2.5 mi SW 15.0 mph 19.6 mph 0.03 in   Overcast
10:35 AM 50.0 °F - 42.8 °F 76% 30.45 in 3.0 mi SW 16.1 mph 20.7 mph 0.05 in   Overcast
10:55 AM 50.0 °F - 42.8 °F 76% 30.45 in 1.8 mi SW 15.0 mph 20.7 mph 0.07 in   Overcast
11:15 AM 50.0 °F - 42.8 °F 76% 30.45 in 1.8 mi SW 13.8 mph 21.9 mph N/A   Overcast
11:35 AM 50.0 °F - 42.8 °F 76% 30.45 in 1.8 mi SW 17.3 mph 20.7 mph 0.01 in   Overcast
11:55 AM 50.0 °F - 44.6 °F 82% 30.45 in 1.8 mi WSW 15.0 mph - 0.01 in   Overcast
12:15 PM 50.0 °F - 44.6 °F 82% 30.46 in 1.8 mi WSW 15.0 mph - N/A   Overcast
12:35 PM 50.0 °F - 44.6 °F 82% 30.46 in 2.0 mi WSW 15.0 mph - 0.01 in   Overcast
12:55 PM 50.0 °F - 44.6 °F 82% 30.45 in 7.0 mi West 13.8 mph - 0.01 in   Overcast
1:15 PM 50.0 °F - 44.6 °F 82% 30.46 in 8.0 mi WNW 12.7 mph - N/A   Overcast
1:35 PM 50.0 °F - 44.6 °F 82% 30.46 in 10.0 mi NW 11.5 mph - N/A   Overcast
1:55 PM 50.0 °F - 44.6 °F 82% 30.46 in 10.0 mi NW 9.2 mph - N/A   Overcast
2:15 PM 51.8 °F - 44.6 °F 76% 30.46 in 10.0 mi NNW 13.8 mph 19.6 mph N/A   Overcast
2:35 PM 51.8 °F - 42.8 °F 71% 30.46 in 10.0 mi NNW 12.7 mph 18.4 mph N/A   Mostly Cloudy
2:55 PM 51.8 °F - 42.8 °F 71% 30.46 in 10.0 mi NNW 13.8 mph 17.3 mph N/A   Mostly Cloudy
3:15 PM 51.8 °F - 42.8 °F 71% 30.47 in 10.0 mi NNW 12.7 mph - N/A   Overcast
3:35 PM 50.0 °F - 41.0 °F 71% 30.47 in 10.0 mi North 16.1 mph 21.9 mph N/A   Overcast
3:55 PM 50.0 °F - 41.0 °F 71% 30.48 in 10.0 mi North 13.8 mph - N/A   Mostly Cloudy
4:15 PM 51.8 °F - 39.2 °F 62% 30.48 in 10.0 mi NNW 13.8 mph - N/A   Mostly Cloudy
4:35 PM 50.0 °F - 39.2 °F 66% 30.48 in 10.0 mi NNW 15.0 mph 20.7 mph N/A   Partly Cloudy
4:55 PM 48.2 °F - 37.4 °F 66% 30.48 in 9.0 mi NNW 10.4 mph - N/A   Partly Cloudy
5:15 PM 48.2 °F - 37.4 °F 66% 30.48 in 9.0 mi NNW 9.2 mph - N/A   Mostly Cloudy
5:35 PM 48.2 °F - 37.4 °F 66% 30.48 in 8.0 mi NNW 11.5 mph - N/A   Overcast
5:55 PM 46.4 °F 41.5 °F 37.4 °F 71% 30.48 in 7.0 mi NNW 10.4 mph - N/A   Overcast
6:15 PM 46.4 °F 41.9 °F 35.6 °F 66% 30.49 in 7.0 mi North 9.2 mph - N/A   Overcast
6:35 PM 46.4 °F 41.9 °F 35.6 °F 66% 30.49 in 8.0 mi North 9.2 mph - N/A   Overcast
6:55 PM 46.4 °F 42.9 °F 35.6 °F 66% 30.50 in 7.0 mi North 6.9 mph - N/A   Overcast
7:15 PM 46.4 °F 43.5 °F 35.6 °F 66% 30.50 in 7.0 mi North 5.8 mph - N/A   Overcast
7:35 PM 44.6 °F 43.1 °F 35.6 °F 71% 30.50 in 7.0 mi NNE 3.5 mph - N/A   Overcast
7:55 PM 44.6 °F 43.1 °F 35.6 °F 71% 30.50 in 7.0 mi NNE 3.5 mph - N/A   Overcast
8:15 PM 44.6 °F - 35.6 °F 71% 30.50 in 7.0 mi Calm Calm - N/A   Overcast
8:35 PM 44.6 °F 43.1 °F 37.4 °F 76% 30.51 in 7.0 mi North 3.5 mph - N/A   Overcast
8:55 PM 44.6 °F - 37.4 °F 76% 30.51 in 7.0 mi Calm Calm - N/A   Overcast
9:15 PM 44.6 °F - 37.4 °F 76% 30.50 in 7.0 mi Calm Calm - N/A   Overcast
9:35 PM 44.6 °F 41.4 °F 37.4 °F 76% 30.51 in 5.0 mi North 5.8 mph - N/A   Overcast
9:55 PM 44.6 °F - 35.6 °F 71% 30.51 in 6.0 mi Calm Calm - N/A   Overcast
10:15 PM 44.6 °F - 35.6 °F 71% 30.51 in 7.0 mi Calm Calm - N/A   Overcast
10:35 PM 44.6 °F 42.2 °F 35.6 °F 71% 30.51 in 7.0 mi NE 4.6 mph - N/A   Overcast
10:55 PM 44.6 °F 43.1 °F 35.6 °F 71% 30.52 in 8.0 mi ENE 3.5 mph - N/A   Overcast
11:15 PM 44.6 °F 40.7 °F 35.6 °F 71% 30.52 in 9.0 mi NE 6.9 mph - N/A   Overcast
11:35 PM 42.8 °F 41.1 °F 35.6 °F 76% 30.51 in 10.0 mi ENE 3.5 mph - N/A   Overcast
11:55 PM 42.8 °F 40.1 °F 33.8 °F 70% 30.50 in 10.0 mi NNE 4.6 mph - N/A   Mostly Cloudy